Simultaneous Nadir Overpasses (SNOs) Predictions

Prediction of SNOs between TERRA and METOP-C Satellite Orbit:

Table of predicted SNOs for the next 14.0 days since TLE Epoch: 6/13/2020
Index Date (TERRA) Time (TERRA) Lat,Lon (TERRA) SZA (TERRA ) Date (METOP-C) Time (METOP-C) Lat,Lon (METOP-C) SZA (METOP-C ) Distance(km) Time Diff (sec)
1 06/14/2020 16:21:39 -81.31, 161.99 119.06 06/14/2020 16:20:27 -81.31, 162.12 119.08 2.29 72
2 06/14/2020 17:11:05 81.31, -30.23 60.96 06/14/2020 17:11:06 81.31, -30.18 60.97 0.93 1
3 06/14/2020 18:00:08 -81.69, 146.83 117.69 06/14/2020 18:01:15 -81.28, 149.97 117.44 69.15 67
4 06/17/2020 11:55:55 -81.30,-131.74 119.20 06/17/2020 11:54:50 -81.30,-131.66 119.22 1.54 65
5 06/17/2020 12:45:21 81.30, 36.00 60.82 06/17/2020 12:45:29 81.31, 36.02 60.83 0.74 8
6 06/20/2020 07:30:10 -81.31, -65.11 119.22 06/20/2020 07:29:12 -81.31, -65.07 119.25 0.65 58
7 06/20/2020 08:19:36 81.31, 102.60 60.79 06/20/2020 08:19:51 81.31, 102.60 60.80 0.08 15
8 06/23/2020 03:04:25 -81.30, 1.14 119.26 06/23/2020 03:03:34 -81.30, 1.12 119.28 0.72 51
9 06/23/2020 03:53:50 81.32, 169.20 60.81 06/23/2020 03:54:12 81.31, 169.18 60.82 0.76 22
10 06/25/2020 22:38:40 -81.31, 67.75 119.18 06/25/2020 22:37:56 -81.30, 67.69 119.20 0.95 44




NCC Satellite Simultaneous Nadir Overpasses (SNOs) Prediction Service
